Content
SEND FEEDBACK

Daily
Averages
Monthly
Summary
United States of America

DEADWOOD, SOUTH DAKOTA


Home > North America > United States > South Dakota
Elevation: 5143 feet     Latitude: 44 21N     Longitude: 103 46W

WEATHER
 
SELECT A DAY
Number of Records: 227,157;   Date Range: 1/2/95 - 7/23/14
 
SHARE

PRINT THIS DATA

[ ← Previous Day ]
WEATHER ALMANAC - JANUARY 23, 2013
[ Next Day → ]
[ °C ]   °F
Weather ElementAverageHighLow
Temperature16.9 °F26.6 °F (12:35 am)10.4 °F (8:15 pm)
Dewpoint11.2 °F14 °F (3:35 am)8.6 °F (7:35 pm)
Humidity79.3 %93 % (10:15 am)51 % (12:35 am)
Barometer30.13 in30.22 in (11:35 am)30.02 in (11:15 pm)
Wind Speed4.8 mph11.5 mph (7:15 am)
Weather ElementAverage
Visibility10 mi
Wind DirectionNE (44.9 °)

Weather ElementTotal
Precipitation---
Heating Degree Days46.5 (Base 65)
Averaged from 65 records on January 23, 2013
WEATHER CONDITIONS BREAKOUT
WIND DIRECTION BREAKOUT
WEATHER BY HOUR - JANUARY 23, 2013
[ °C ]   °F
Local TimeTemperatureDewpointHumidityBarometerVisibilityWind DirectionWind SpeedGust SpeedPrecipitationEventsConditions
12:35 AM26.6 °F10.4 °F51 %30.05 in10.0 miCalmClear
1:15 AM26.6 °F10.4 °F51 %30.05 in10.0 miCalmClear
1:35 AM26.6 °F10.4 °F51 %30.05 in10.0 miCalmClear
1:55 AM26.6 °F10.4 °F51 %30.05 in10.0 miCalmClear
2:15 AM24.8 °F10.4 °F54 %30.05 in10.0 miCalmClear
2:35 AM23.0 °F12.2 °F63 %30.05 in10.0 miCalmClear
3:35 AM23.0 °F14.0 °F68 %30.06 in10.0 miCalmClear
3:55 AM23.0 °F14.0 °F68 %30.07 in10.0 miCalmClear
4:15 AM23.0 °F14.0 °F68 %30.08 in10.0 miCalmClear
4:35 AM23.0 °F14.0 °F68 %30.08 in10.0 miSSW (200°)3.5 mphClear
4:55 AM21.2 °F14.0 °F74 %30.09 in10.0 miSW (230°)4.6 mphClear
5:15 AM21.2 °F14.0 °F74 %30.08 in10.0 miSSW (210°)6.9 mphClear
5:35 AM21.2 °F14.0 °F74 %30.07 in10.0 miCalmClear
5:55 AM23.0 °F14.0 °F68 %30.07 in10.0 miCalmClear
6:35 AM23.0 °F12.2 °F63 %30.09 in10.0 miCalmClear
6:55 AM19.4 °F12.2 °F74 %30.10 in10.0 miNE (40°)6.9 mphClear
7:15 AM19.4 °F14.0 °F80 %30.11 in10.0 miNE (40°)11.5 mphClear
7:35 AM15.8 °F10.4 °F79 %30.12 in10.0 miNE (40°)11.5 mphClear
7:55 AM15.8 °F10.4 °F79 %30.12 in10.0 miNE (50°)6.9 mphClear
8:15 AM14.0 °F10.4 °F86 %30.14 in10.0 miNE (40°)8.1 mphClear
8:35 AM14.0 °F10.4 °F86 %30.15 in10.0 miNE (40°)4.6 mphClear
8:55 AM14.0 °F10.4 °F86 %30.16 in10.0 miNE (40°)6.9 mphClear
9:15 AM14.0 °F10.4 °F86 %30.17 in10.0 miNE (50°)6.9 mphClear
9:35 AM14.0 °F10.4 °F86 %30.19 in10.0 miNE (40°)8.1 mphClear
9:55 AM14.0 °F10.4 °F86 %30.20 in9.0 miNE (40°)10.4 mphClear
10:15 AM14.0 °F12.2 °F93 %30.21 in10.0 miNE (40°)6.9 mphClear
10:35 AM14.0 °F12.2 °F93 %30.21 in10.0 miNE (40°)5.8 mphClear
10:55 AM15.8 °F14.0 °F93 %30.20 in10.0 miNE (50°)4.6 mphClear
11:15 AM15.8 °F14.0 °F93 %30.21 in10.0 miNE (50°)8.1 mphClear
11:35 AM15.8 °F12.2 °F86 %30.22 in10.0 miNE (40°)8.1 mphClear
11:55 AM15.8 °F12.2 °F86 %30.22 in10.0 miNNE (20°)3.5 mphClear
12:15 PM17.6 °F12.2 °F79 %30.20 in10.0 miCalmClear
12:35 PM19.4 °F14.0 °F80 %30.20 in10.0 miCalmClear
12:55 PM19.4 °F14.0 °F80 %30.20 in10.0 miNE (40°)4.6 mphClear
1:15 PM19.4 °F12.2 °F74 %30.19 in10.0 miNE (40°)5.8 mphClear
1:35 PM19.4 °F12.2 °F74 %30.18 in10.0 miNE (40°)8.1 mphClear
1:55 PM19.4 °F12.2 °F74 %30.17 in10.0 miNE (40°)9.2 mphClear
2:15 PM17.6 °F12.2 °F79 %30.17 in10.0 miNE (50°)8.1 mphClear
2:35 PM17.6 °F12.2 °F79 %30.17 in10.0 miNE (50°)9.2 mphClear
2:55 PM17.6 °F10.4 °F73 %30.17 in10.0 miNE (50°)8.1 mphClear
3:15 PM17.6 °F10.4 °F73 %30.17 in10.0 miENE (60°)8.1 mphClear
3:35 PM17.6 °F10.4 °F73 %30.18 in10.0 miNE (50°)8.1 mphClear
3:55 PM15.8 °F10.4 °F79 %30.17 in10.0 miENE (60°)10.4 mphClear
4:15 PM15.8 °F10.4 °F79 %30.18 in10.0 miENE (60°)8.1 mphClear
4:35 PM15.8 °F10.4 °F79 %30.18 in10.0 miENE (60°)8.1 mphClear
4:55 PM14.0 °F10.4 °F86 %30.17 in10.0 miENE (60°)5.8 mphClear
5:15 PM14.0 °F10.4 °F86 %30.17 in10.0 miENE (60°)4.6 mphClear
5:35 PM14.0 °F10.4 °F86 %30.16 in10.0 miEast (80°)4.6 mphClear
5:55 PM14.0 °F10.4 °F86 %30.16 in10.0 miNE (50°)5.8 mphClear
6:15 PM14.0 °F10.4 °F86 %30.16 in10.0 miNE (40°)5.8 mphClear
6:35 PM12.2 °F10.4 °F92 %30.16 in10.0 miNE (40°)6.9 mphClear
6:55 PM12.2 °F10.4 °F92 %30.15 in10.0 miNE (40°)5.8 mphClear
7:15 PM14.0 °F10.4 °F86 %30.14 in10.0 miEast (100°)5.8 mphClear
7:35 PM12.2 °F8.6 °F85 %30.13 in10.0 miNE (40°)4.6 mphClear
7:55 PM12.2 °F8.6 °F85 %30.14 in10.0 miNNE (20°)5.8 mphClear
8:15 PM10.4 °F8.6 °F92 %30.13 in10.0 miNNE (20°)4.6 mphClear
8:35 PM10.4 °F8.6 °F92 %30.12 in10.0 miNNE (30°)3.5 mphClear
8:55 PM10.4 °F8.6 °F92 %30.11 in10.0 miNE (40°)4.6 mphClear
9:15 PM10.4 °F8.6 °F92 %30.10 in10.0 miCalmClear
9:55 PM12.2 °F8.6 °F85 %30.08 in10.0 miCalmClear
10:35 PM12.2 °F8.6 °F85 %30.07 in10.0 miCalmClear
10:55 PM14.0 °F10.4 °F86 %30.05 in10.0 miCalmClear
11:15 PM10.4 °F8.6 °F92 %30.02 in10.0 miEast (100°)4.6 mphClear
11:35 PM10.4 °F8.6 °F92 %30.03 in10.0 miNorth (10°)3.5 mphClear
11:55 PM12.2 °F8.6 °F85 %30.04 in10.0 miWNW (290°)3.5 mphClear
Hourly data recorded from KSPF, located miles away from Deadwood, South Dakota







STORIES FROM OUR PARTNERS